Sylvania, OH

7:50 AM EST on February 19, 2017 (GMT -0500)
Lambertville

Weather History for KDUH - May, 2014

Change the Weather History Date:

Thursday, May 1, 2014

  Actual Average (KTOL) Record (KTOL)
Temperature  
Mean Temperature 48 °F -  
Max Temperature 55 °F 66 °F 88 °F (1942)
Min Temperature 42 °F 42 °F 28 °F (1963)
Degree Days  
Heating Degree Days 16    
Moisture  
Dew Point 37 °F    
Average Humidity 63    
Maximum Humidity 81    
Minimum Humidity 47    
Precipitation  
Precipitation 0.00 in - - ()
Sea Level Pressure  
Sea Level Pressure 29.80 in    
Wind  
Wind Speed 10 mph (WSW)    
Max Wind Speed 18 mph    
Max Gust Speed 29 mph    
Visibility 10 miles    
Events Rain    
Averages and records for this station are not official NWS values.
T = Trace of Precipitation, MM = Missing Value Source: NWS Daily Summary

Daily Weather History Graph

Daily Weather History Graph

Search for Another Location

Airport or City:

Trip Planner

Search our weather history database for the weather conditions in past years. The results will help you decide how hot, cold, wet, or windy it might be!

Date:

Astronomy

May. 01, 2014 Rise Set
Actual Time 6:31 AM EDT 8:32 PM EDT
Civil Twilight 6:00 AM EDT 9:03 PM EDT
Nautical Twilight 5:23 AM EDT 9:40 PM EDT
Astronomical Twilight 4:43 AM EDT 10:21 PM EDT
Moon 8:17 AM EDT (5/1) 11:06 PM EDT (5/1)
Length of Visible Light 15h 02m
Length of Day
14h 01m
Waxing Crescent, 6% of the Moon is Illuminated
May 1
Waxing Crescent
May 6
First Quarter
May 14
Full
May 21
Last Quarter
May 28
New

Hourly Weather History & Observations

Time (EDT) Temp. Windchill Dew Point Humidity Pressure Visibility Wind Dir Wind Speed Gust Speed Precip Events Conditions
12:15 AM 53.6 °F - 44.6 °F 72% 29.80 in 10.0 mi West 9.2 mph 17.3 mph N/A   Clear
12:35 AM 51.8 °F - 42.8 °F 71% 29.81 in 10.0 mi West 16.1 mph 21.9 mph N/A   Clear
12:55 AM 51.8 °F - 42.8 °F 71% 29.82 in 10.0 mi West 11.5 mph 19.6 mph N/A   Scattered Clouds
1:15 AM 51.8 °F - 41.0 °F 67% 29.82 in 10.0 mi West 11.5 mph 20.7 mph N/A   Overcast
1:35 AM 51.8 °F - 41.0 °F 67% 29.82 in 10.0 mi West 11.5 mph 21.9 mph N/A   Overcast
1:55 AM 50.0 °F - 41.0 °F 71% 29.81 in 10.0 mi West 6.9 mph - N/A   Overcast
2:15 AM 50.0 °F - 41.0 °F 71% 29.81 in 10.0 mi WSW 6.9 mph - N/A   Overcast
2:35 AM 50.0 °F - 37.4 °F 62% 29.80 in 10.0 mi WSW 8.1 mph - N/A   Overcast
2:55 AM 50.0 °F - 37.4 °F 62% 29.80 in 10.0 mi WSW 11.5 mph 17.3 mph N/A   Mostly Cloudy
3:15 AM 46.4 °F 41.5 °F 37.4 °F 71% 29.81 in 10.0 mi WSW 10.4 mph 17.3 mph N/A   Scattered Clouds
3:35 AM 46.4 °F 41.1 °F 37.4 °F 71% 29.81 in 10.0 mi WSW 11.5 mph 16.1 mph N/A   Scattered Clouds
3:55 AM 46.4 °F 42.4 °F 37.4 °F 71% 29.81 in 10.0 mi WSW 8.1 mph - N/A   Clear
4:15 AM 44.6 °F 40.2 °F 35.6 °F 71% 29.81 in 10.0 mi WSW 8.1 mph - N/A   Clear
4:35 AM 44.6 °F 41.4 °F 35.6 °F 71% 29.81 in 10.0 mi WSW 5.8 mph - N/A   Clear
5:15 AM 44.6 °F 41.4 °F 35.6 °F 71% 29.81 in 10.0 mi WSW 5.8 mph - N/A   Clear
5:35 AM 42.8 °F 41.1 °F 35.6 °F 76% 29.81 in 10.0 mi SW 3.5 mph - N/A   Clear
5:55 AM 42.8 °F 38.6 °F 35.6 °F 76% 29.81 in 10.0 mi SSW 6.9 mph - N/A   Scattered Clouds
6:15 AM 42.8 °F 40.1 °F 35.6 °F 76% 29.81 in 10.0 mi South 4.6 mph - N/A   Mostly Cloudy
6:35 AM 44.6 °F 42.2 °F 37.4 °F 76% 29.81 in 10.0 mi South 4.6 mph - N/A   Mostly Cloudy
6:55 AM 44.6 °F 42.2 °F 37.4 °F 76% 29.81 in 10.0 mi South 4.6 mph - N/A   Overcast
7:15 AM 44.6 °F 41.4 °F 37.4 °F 76% 29.81 in 10.0 mi SSW 5.8 mph - N/A   Overcast
7:35 AM 44.6 °F 42.2 °F 37.4 °F 76% 29.81 in 10.0 mi SSW 4.6 mph - N/A   Mostly Cloudy
7:55 AM 46.4 °F 42.4 °F 37.4 °F 71% 29.81 in 10.0 mi SW 8.1 mph - N/A   Mostly Cloudy
8:15 AM 48.2 °F - 37.4 °F 66% 29.80 in 10.0 mi SW 9.2 mph 16.1 mph N/A   Mostly Cloudy
8:35 AM 50.0 °F - 37.4 °F 62% 29.80 in 10.0 mi WSW 8.1 mph 17.3 mph N/A   Overcast
8:55 AM 48.2 °F - 37.4 °F 66% 29.81 in 10.0 mi SW 11.5 mph 17.3 mph N/A   Overcast
9:15 AM 50.0 °F - 37.4 °F 62% 29.80 in 10.0 mi SW 8.1 mph 16.1 mph N/A   Overcast
9:35 AM 50.0 °F - 37.4 °F 62% 29.81 in 10.0 mi SW 10.4 mph 17.3 mph N/A   Mostly Cloudy
10:15 AM 51.8 °F - 37.4 °F 58% 29.79 in 10.0 mi SW 11.5 mph 17.3 mph N/A   Scattered Clouds
10:55 AM 51.8 °F - 37.4 °F 58% 29.78 in 10.0 mi SW 12.7 mph 19.6 mph N/A   Mostly Cloudy
11:15 AM 53.6 °F - 35.6 °F 51% 29.78 in 10.0 mi SW 12.7 mph 26.5 mph N/A   Scattered Clouds
11:35 AM 55.4 °F - 35.6 °F 47% 29.78 in 10.0 mi WSW 10.4 mph 18.4 mph N/A   Mostly Cloudy
11:55 AM 51.8 °F - 35.6 °F 54% 29.78 in 10.0 mi WSW 10.4 mph 19.6 mph N/A   Overcast
12:15 PM 51.8 °F - 35.6 °F 54% 29.78 in 10.0 mi WSW 13.8 mph 19.6 mph N/A   Overcast
12:35 PM 53.6 °F - 37.4 °F 54% 29.78 in 10.0 mi SW 10.4 mph - N/A   Overcast
1:15 PM 53.6 °F - 35.6 °F 51% 29.77 in 10.0 mi SW 13.8 mph 20.7 mph N/A   Overcast
1:35 PM 53.6 °F - 35.6 °F 51% 29.78 in 10.0 mi SW 17.3 mph 26.5 mph N/A   Overcast
1:55 PM 53.6 °F - 33.8 °F 47% 29.77 in 10.0 mi WSW 16.1 mph 25.3 mph N/A   Overcast
2:15 PM 53.6 °F - 35.6 °F 51% 29.78 in 10.0 mi SW 13.8 mph 27.6 mph N/A   Overcast
2:35 PM 53.6 °F - 35.6 °F 51% 29.78 in 10.0 mi WSW 18.4 mph 28.8 mph N/A   Overcast
3:15 PM 53.6 °F - 35.6 °F 51% 29.78 in 10.0 mi SW 15.0 mph 23.0 mph N/A   Overcast
3:35 PM 53.6 °F - 35.6 °F 51% 29.78 in 10.0 mi SW 13.8 mph 25.3 mph N/A   Overcast
3:55 PM 53.6 °F - 35.6 °F 51% 29.78 in 10.0 mi WSW 15.0 mph 23.0 mph N/A   Overcast
4:15 PM 53.6 °F - 35.6 °F 51% 29.78 in 10.0 mi WSW 10.4 mph 25.3 mph N/A   Overcast
4:35 PM 53.6 °F - 35.6 °F 51% 29.78 in 10.0 mi WSW 11.5 mph 26.5 mph N/A   Overcast
4:55 PM 53.6 °F - 35.6 °F 51% 29.79 in 10.0 mi SW 13.8 mph 28.8 mph N/A   Overcast
5:15 PM 53.6 °F - 35.6 °F 51% 29.79 in 10.0 mi West 15.0 mph 23.0 mph N/A   Overcast
5:35 PM 53.6 °F - 35.6 °F 51% 29.79 in 10.0 mi WSW 10.4 mph 20.7 mph N/A   Overcast
5:55 PM 51.8 °F - 35.6 °F 54% 29.79 in 10.0 mi WSW 13.8 mph 23.0 mph N/A   Overcast
6:15 PM 51.8 °F - 35.6 °F 54% 29.79 in 10.0 mi WSW 6.9 mph 16.1 mph N/A   Overcast
6:35 PM 51.8 °F - 35.6 °F 54% 29.80 in 10.0 mi WSW 13.8 mph 21.9 mph N/A   Overcast
6:55 PM 51.8 °F - 35.6 °F 54% 29.79 in 10.0 mi SW 12.7 mph 20.7 mph N/A   Overcast
7:15 PM 51.8 °F - 35.6 °F 54% 29.80 in 10.0 mi WSW 13.8 mph 20.7 mph N/A   Overcast
7:35 PM 51.8 °F - 35.6 °F 54% 29.80 in 10.0 mi WSW 10.4 mph 20.7 mph N/A   Overcast
7:55 PM 51.8 °F - 35.6 °F 54% 29.80 in 10.0 mi WSW 6.9 mph 21.9 mph N/A   Overcast
8:15 PM 51.8 °F - 37.4 °F 58% 29.81 in 10.0 mi WSW 12.7 mph 23.0 mph N/A   Overcast
8:35 PM 50.0 °F - 37.4 °F 62% 29.81 in 10.0 mi WSW 11.5 mph 19.6 mph N/A   Overcast
8:55 PM 50.0 °F - 37.4 °F 62% 29.81 in 10.0 mi WSW 11.5 mph 18.4 mph N/A   Overcast
9:15 PM 50.0 °F - 37.4 °F 62% 29.81 in 10.0 mi WSW 11.5 mph 19.6 mph N/A   Overcast
9:35 PM 50.0 °F - 37.4 °F 62% 29.81 in 10.0 mi WSW 12.7 mph 20.7 mph N/A   Overcast
9:55 PM 50.0 °F - 37.4 °F 62% 29.81 in 10.0 mi WSW 12.7 mph 17.3 mph N/A Rain Rain
10:15 PM 48.2 °F - 39.2 °F 71% 29.82 in 10.0 mi WSW 8.1 mph 21.9 mph N/A Rain Rain
10:35 PM 48.2 °F - 41.0 °F 76% 29.82 in 10.0 mi WSW 10.4 mph 19.6 mph N/A Rain Rain
10:55 PM 46.4 °F 41.1 °F 41.0 °F 81% 29.81 in 10.0 mi WSW 11.5 mph 16.1 mph N/A   Overcast
11:15 PM 46.4 °F 42.4 °F 41.0 °F 81% 29.81 in 10.0 mi SW 8.1 mph 24.2 mph N/A   Overcast
11:35 PM 46.4 °F 40.7 °F 41.0 °F 81% 29.80 in 10.0 mi WSW 12.7 mph 18.4 mph N/A   Overcast
11:55 PM 48.2 °F - 41.0 °F 76% 29.80 in 10.0 mi WSW 10.4 mph 17.3 mph N/A   Overcast